Observation Tools

Crape myrtle Photo courtesy of Steve Baskauf, Vanderbilt University, bioimages.vanderbilt.edu.

Crape myrtle (Lagerstroemia indica)


Plant Family: Loosestrife (Lythraceae)
Project BudBurst Plant Group: Deciduous Trees and Shrubs

Identification Hints: Crape myrtles are very popular as landscape trees in the southeastern United States. They come in a variety of colors, most commonly shades of pink, red, and white. Crape myrtles are deciduoustrees that generally have multiple stems and very showy flowers that have crinkled petals.

Did you Know? The United States National Arboretum hasa Quick Guide Chart to many common varieties of Crape myrtle. You can learn about flower color, bark, height, growth habit and fall color of over 30 varieties.The origins of many crape myrtle varieties are India, Asia, and parts of northern Australia. Crape myrtles are very popular in the southeastern United States and are sometimes nicknamed the "lilac of the South".


Live Map for Crape myrtle

Other years available for viewing:

Below you can view all observations that have been reported in for Crape myrtle (If the map below is empty then there have not been any observations reported.)

Use the navigation buttons on the left to zoom in/out and pan around. Click on each place marker to get detail information about that observation.

Leaf/Needles/Stalk = Leaf/Needles/Stalk Flower = Flower Pollen = Pollen Fruiting = Fruiting Color = Color

--Back to Top--

close help window button

The table below displays all the data that has been submitted to Project BudBurst. By default, the data is sorted by the date on which the phenophase occurred. Clicking the up and down arrows next to each column name allows you to sort on any value. If there have been more than 10 observations submitted, you can choose how many to display at a time using the "Show __ entries" control. You can also page through the data using the previous and next buttons at the bottom right of the table.

The Search box allows you to search all of the data. Searching by date, species, phenophase, etc. is easy—just start typing and the table will immediately change to contain only observations that contain your search phrase. Do you want to see only 2012 observations? Just type "2012" in the search box. Only want to see maples? Enter "Acer." You can combine searches, too! Searching for "acer 2012" will narrow your results to only the maples that were observed in 2012 (assuming that any observations exist, of course).

Once you have your results in the order desired, you can use any of the buttons above the search box to copy the results to the clipboard; save them as a text, or spreadsheet; or even print them from your browser!

Observational data for Crape myrtle:

help button
Date Contributor Common Name Species Phenophase Latitude Longitude Obs#
Fri Jan 01 00:00:00 GMT 2010 anders Crape myrtle Lagerstroemia indica First Leaf 45.000000000000000 -104.000000000000000 10642
Mon Feb 01 00:00:00 GMT 2010 anders Crape myrtle Lagerstroemia indica First Flower 45.000000000000000 -104.000000000000000 10643
Mon Feb 01 00:00:00 GMT 2010 anders Crape myrtle Lagerstroemia indica First Flower 45.000000000000000 -104.000000000000000 10644
Fri Jan 01 00:00:00 GMT 2010 anders Crape myrtle Lagerstroemia indica Full Flower 45.000000000000000 -104.000000000000000 10646
Mon Mar 01 00:00:00 GMT 2010 anders Crape myrtle Lagerstroemia indica Full Flower 45.000000000000000 -104.000000000000000 10645
Mon Apr 09 00:00:00 GMT 2012 srseavey Crape myrtle Lagerstroemia indica Leaves Unfolding (Early) 36.866200000000000 -76.059600000000000 14867
Thu Sep 27 00:00:00 GMT 2012 snewman14 Crape myrtle Lagerstroemia indica Flowers (Late) 33.650100000000000 -97.203600000000000 16758
Mon Oct 15 00:00:00 GMT 2012 snewman14 Crape myrtle Lagerstroemia indica Fruit (Early) 38.926200000000000 -77.053100000000000 17016
Tue Apr 02 00:00:00 GMT 2013 askinner Crape myrtle Lagerstroemia indica Flowers (Early) 37.225200000000000 -80.420400000000000 18456
Wed Apr 10 00:00:00 GMT 2013 cbleacher16 Crape myrtle Lagerstroemia indica Bud Burst 33.960000000000000 -84.276800000000000 18764
Tue Apr 09 00:00:00 GMT 2013 MiaCora Crape myrtle Lagerstroemia indica Bud Burst 35.047100000000000 -78.951700000000000 18843
Fri Apr 12 00:00:00 GMT 2013 MiaCora Crape myrtle Lagerstroemia indica First Leaf 35.047100000000000 -78.951700000000000 18844
Sat Apr 06 00:00:00 GMT 2013 aschlader Crape myrtle Lagerstroemia indica Bud Burst 33.967400000000000 -84.285000000000000 18890
Fri Apr 12 00:00:00 GMT 2013 aschlader Crape myrtle Lagerstroemia indica First Leaf 33.967400000000000 -84.285000000000000 18891
Sat Mar 30 00:00:00 GMT 2013 katewinslow Crape myrtle Lagerstroemia indica Bud Burst 33.784500000000000 -84.349000000000000 18955
Fri Apr 05 00:00:00 GMT 2013 katewinslow Crape myrtle Lagerstroemia indica First Leaf 33.784500000000000 -84.349000000000000 18956
Sun Apr 14 00:00:00 GMT 2013 katewinslow Crape myrtle Lagerstroemia indica All Leaves Unfolded 33.784500000000000 -84.349000000000000 18957
Wed Apr 17 00:00:00 GMT 2013 greenbean Crape myrtle Lagerstroemia indica First Leaf 37.579600000000000 -77.462000000000000 19012
Mon Apr 01 00:00:00 GMT 2013 scerniglia16 Crape myrtle Lagerstroemia indica Leaves Unfolding (Middle) 34.020800000000000 -84.245300000000000 19218
Sat May 04 00:00:00 GMT 2013 Mango55 Crape myrtle Lagerstroemia indica Bud Burst 40.208200000000000 -76.771900000000000 20008
Wed May 08 00:00:00 GMT 2013 Mango55 Crape myrtle Lagerstroemia indica First Leaf 40.208200000000000 -76.771900000000000 20297
Mon May 13 00:00:00 GMT 2013 Mango55 Crape myrtle Lagerstroemia indica All Leaves Unfolded 40.208200000000000 -76.771900000000000 20298
Wed Apr 17 00:00:00 GMT 2013 Angelyn Crape myrtle Lagerstroemia indica Bud Burst 35.619100000000000 -82.765100000000000 20774
Sat Apr 20 00:00:00 GMT 2013 Angelyn Crape myrtle Lagerstroemia indica First Leaf 35.619100000000000 -82.765100000000000 20775
Thu Apr 25 00:00:00 GMT 2013 Angelyn Crape myrtle Lagerstroemia indica All Leaves Unfolded 35.619100000000000 -82.765100000000000 20776
Wed Jul 17 00:00:00 GMT 2013 larag Crape myrtle Lagerstroemia indica Flowers (Middle) 32.801900000000000 -96.766000000000000 21601
Mon Jul 22 00:00:00 GMT 2013 Angelyn Crape myrtle Lagerstroemia indica First Flower 35.619100000000000 -82.765100000000000 21636
Sun Sep 29 00:00:00 GMT 2013 rkclark Crape myrtle Lagerstroemia indica Fruit (Middle) 35.869200000000000 -78.727900000000000 22306
Sun Oct 20 00:00:00 GMT 2013 kweatherspoon0001 Crape myrtle Lagerstroemia indica Leaves Dropping (Middle) 36.621900000000000 -88.351800000000000 22718
Tue Nov 05 00:00:00 GMT 2013 nelsen15c Crape myrtle Lagerstroemia indica Leaves Dropping (Early) 36.218800000000000 -81.680600000000000 22965
Tue Nov 05 00:00:00 GMT 2013 Nectarlane Crape myrtle Lagerstroemia indica 50% Color 40.168200000000000 -74.813500000000000 23121
Mon Jan 25 00:00:00 GMT 2016 melaniehenon Crape myrtle Lagerstroemia indica Bud Burst 33.100970000000000 -96.893990000000000 61702
Mon Jan 25 00:00:00 GMT 2016 melaniehenon Crape myrtle Lagerstroemia indica First Leaf 33.100970000000000 -96.893990000000000 61703
Mon Jan 25 00:00:00 GMT 2016 melaniehenon Crape myrtle Lagerstroemia indica All Leaves Unfolded 33.100970000000000 -96.893990000000000 61704
Mon Jan 25 00:00:00 GMT 2016 melaniehenon Crape myrtle Lagerstroemia indica First Flower 33.100970000000000 -96.893990000000000 61705
Mon Jan 25 00:00:00 GMT 2016 melaniehenon Crape myrtle Lagerstroemia indica Full Flower 33.100970000000000 -96.893990000000000 61706
Mon Jan 25 00:00:00 GMT 2016 melaniehenon Crape myrtle Lagerstroemia indica First Ripe Fruit 33.100970000000000 -96.893990000000000 61707
Mon Jan 25 00:00:00 GMT 2016 melaniehenon Crape myrtle Lagerstroemia indica Full Fruiting 33.100970000000000 -96.893990000000000 61708
Mon Jan 25 00:00:00 GMT 2016 melaniehenon Crape myrtle Lagerstroemia indica 50% Color 33.100970000000000 -96.893990000000000 61709
Mon Jan 25 00:00:00 GMT 2016 melaniehenon Crape myrtle Lagerstroemia indica 50% Leaf Fall 33.100970000000000 -96.893990000000000 61710
Mon Jan 25 00:00:00 GMT 2016 melaniehenon Crape myrtle Lagerstroemia indica Leaves Unfolding (Late) 40.000000000000000 -100.000000000000000 61711
Mon Jan 25 00:00:00 GMT 2016 melaniehenon Crape myrtle Lagerstroemia indica Leaves Changing Color (Late) 40.000000000000000 -100.000000000000000 61712
Mon Jan 25 00:00:00 GMT 2016 melaniehenon Crape myrtle Lagerstroemia indica Leaves Dropping (Late) 40.000000000000000 -100.000000000000000 61713
Mon Jan 25 00:00:00 GMT 2016 melaniehenon Crape myrtle Lagerstroemia indica Flowers (Late) 40.000000000000000 -100.000000000000000 61714
Mon Jan 25 00:00:00 GMT 2016 melaniehenon Crape myrtle Lagerstroemia indica Fruit (None) 40.000000000000000 -100.000000000000000 61715
Wed Feb 10 00:00:00 GMT 2016 kavaugha Crape myrtle Lagerstroemia indica Leaves Unfolding (None) 32.923060000000000 -96.866790000000000 61903
Wed Feb 10 00:00:00 GMT 2016 kavaugha Crape myrtle Lagerstroemia indica Leaves Changing Color (Late) 32.923060000000000 -96.866790000000000 61904
Wed Feb 10 00:00:00 GMT 2016 kavaugha Crape myrtle Lagerstroemia indica Leaves Dropping (Late) 32.923060000000000 -96.866790000000000 61905
Wed Feb 10 00:00:00 GMT 2016 kavaugha Crape myrtle Lagerstroemia indica Flowers (None) 32.923060000000000 -96.866790000000000 61906
Wed Feb 10 00:00:00 GMT 2016 kavaugha Crape myrtle Lagerstroemia indica Fruit (None) 32.923060000000000 -96.866790000000000 61907
Fri Mar 25 00:00:00 GMT 2016 mato1896 Crape myrtle Lagerstroemia indica Leaves Unfolding (Middle) 32.791243000000000 -96.574379000000000 63706
Fri Mar 25 00:00:00 GMT 2016 mato1896 Crape myrtle Lagerstroemia indica Leaves Changing Color (None) 32.791243000000000 -96.574379000000000 63707
Fri Mar 25 00:00:00 GMT 2016 mato1896 Crape myrtle Lagerstroemia indica Leaves Dropping (None) 32.791243000000000 -96.574379000000000 63708
Fri Mar 25 00:00:00 GMT 2016 mato1896 Crape myrtle Lagerstroemia indica Flowers (None) 32.791243000000000 -96.574379000000000 63709
Fri Mar 25 00:00:00 GMT 2016 mato1896 Crape myrtle Lagerstroemia indica Fruit (None) 32.791243000000000 -96.574379000000000 63710
Thu Apr 14 00:00:00 GMT 2016 Rachel82 Crape myrtle Lagerstroemia indica Leaves Unfolding (Middle) 38.835270000000000 -77.309480000000000 64636
Thu Apr 14 00:00:00 GMT 2016 Rachel82 Crape myrtle Lagerstroemia indica Leaves Changing Color (None) 38.835270000000000 -77.309480000000000 64637
Thu Apr 14 00:00:00 GMT 2016 Rachel82 Crape myrtle Lagerstroemia indica Leaves Dropping (None) 38.835270000000000 -77.309480000000000 64638
Thu Apr 14 00:00:00 GMT 2016 Rachel82 Crape myrtle Lagerstroemia indica Flowers (Middle) 38.835270000000000 -77.309480000000000 64639
Thu Apr 14 00:00:00 GMT 2016 Rachel82 Crape myrtle Lagerstroemia indica Fruit (None) 38.835270000000000 -77.309480000000000 64640
Tue Apr 19 00:00:00 GMT 2016 richardsonfamily Crape myrtle Lagerstroemia indica Leaves Unfolding (Late) 38.661810000000000 -121.755440000000000 64840
Tue Apr 19 00:00:00 GMT 2016 richardsonfamily Crape myrtle Lagerstroemia indica Leaves Changing Color (None) 38.661810000000000 -121.755440000000000 64841
Tue Apr 19 00:00:00 GMT 2016 richardsonfamily Crape myrtle Lagerstroemia indica Leaves Dropping (None) 38.661810000000000 -121.755440000000000 64842
Tue Apr 19 00:00:00 GMT 2016 richardsonfamily Crape myrtle Lagerstroemia indica Flowers (None) 38.661810000000000 -121.755440000000000 64843
Tue Apr 19 00:00:00 GMT 2016 richardsonfamily Crape myrtle Lagerstroemia indica Fruit (None) 38.661810000000000 -121.755440000000000 64844
Fri Apr 22 00:00:00 GMT 2016 micklowclass_Ford_ES_reporter5 Crape myrtle Lagerstroemia indica All Leaves Unfolded 33.987180000000000 -84.714650000000000 66816
Wed Apr 06 00:00:00 GMT 2016 JCRABudBurst Crape myrtle Lagerstroemia indica Leaves Unfolding (Middle) 35.794840000000000 -78.700090000000000 67070
Wed Apr 06 00:00:00 GMT 2016 JCRABudBurst Crape myrtle Lagerstroemia indica Leaves Changing Color (None) 35.794840000000000 -78.700090000000000 67071
Wed Apr 06 00:00:00 GMT 2016 JCRABudBurst Crape myrtle Lagerstroemia indica Leaves Dropping (None) 35.794840000000000 -78.700090000000000 67072
Wed Apr 06 00:00:00 GMT 2016 JCRABudBurst Crape myrtle Lagerstroemia indica Flowers (None) 35.794840000000000 -78.700090000000000 67073
Wed Apr 06 00:00:00 GMT 2016 JCRABudBurst Crape myrtle Lagerstroemia indica Fruit (None) 35.794840000000000 -78.700090000000000 67074
Sat May 30 00:00:00 GMT 2015 JCRABudBurst Crape myrtle Lagerstroemia indica Leaves Unfolding (Late) 35.794840000000000 -78.700090000000000 67288
Sat May 30 00:00:00 GMT 2015 JCRABudBurst Crape myrtle Lagerstroemia indica Leaves Changing Color (None) 35.794840000000000 -78.700090000000000 67289
Sat May 30 00:00:00 GMT 2015 JCRABudBurst Crape myrtle Lagerstroemia indica Leaves Dropping (None) 35.794840000000000 -78.700090000000000 67290
Sat May 30 00:00:00 GMT 2015 JCRABudBurst Crape myrtle Lagerstroemia indica Flowers (Middle) 35.794840000000000 -78.700090000000000 67291
Sat May 30 00:00:00 GMT 2015 JCRABudBurst Crape myrtle Lagerstroemia indica Fruit (None) 35.794840000000000 -78.700090000000000 67292
Sun Jun 07 00:00:00 GMT 2015 JCRABudBurst Crape myrtle Lagerstroemia indica Leaves Unfolding (Late) 35.794840000000000 -78.700090000000000 67293
Sun Jun 07 00:00:00 GMT 2015 JCRABudBurst Crape myrtle Lagerstroemia indica Leaves Changing Color (None) 35.794840000000000 -78.700090000000000 67294
Sun Jun 07 00:00:00 GMT 2015 JCRABudBurst Crape myrtle Lagerstroemia indica Leaves Dropping (None) 35.794840000000000 -78.700090000000000 67295
Sun Jun 07 00:00:00 GMT 2015 JCRABudBurst Crape myrtle Lagerstroemia indica Flowers (None) 35.794840000000000 -78.700090000000000 67296
Sun Jun 07 00:00:00 GMT 2015 JCRABudBurst Crape myrtle Lagerstroemia indica Fruit (None) 35.794840000000000 -78.700090000000000 67297
Sun Jul 12 00:00:00 GMT 2015 JCRABudBurst Crape myrtle Lagerstroemia indica Leaves Unfolding (Late) 35.794840000000000 -78.700090000000000 67298
Sun Jul 12 00:00:00 GMT 2015 JCRABudBurst Crape myrtle Lagerstroemia indica Leaves Changing Color (None) 35.794840000000000 -78.700090000000000 67299
Sun Jul 12 00:00:00 GMT 2015 JCRABudBurst Crape myrtle Lagerstroemia indica Leaves Dropping (Early) 35.794840000000000 -78.700090000000000 67300
Sun Jul 12 00:00:00 GMT 2015 JCRABudBurst Crape myrtle Lagerstroemia indica Flowers (Middle) 35.794840000000000 -78.700090000000000 67301
Sun Jul 12 00:00:00 GMT 2015 JCRABudBurst Crape myrtle Lagerstroemia indica Fruit (Middle) 35.794840000000000 -78.700090000000000 67302
Tue Oct 13 00:00:00 GMT 2015 JCRABudBurst Crape myrtle Lagerstroemia indica Leaves Unfolding (Late) 35.794840000000000 -78.700090000000000 67303
Tue Oct 13 00:00:00 GMT 2015 JCRABudBurst Crape myrtle Lagerstroemia indica Leaves Changing Color (Early) 35.794840000000000 -78.700090000000000 67304
Tue Oct 13 00:00:00 GMT 2015 JCRABudBurst Crape myrtle Lagerstroemia indica Leaves Dropping (None) 35.794840000000000 -78.700090000000000 67305
Tue Oct 13 00:00:00 GMT 2015 JCRABudBurst Crape myrtle Lagerstroemia indica Flowers (Late) 35.794840000000000 -78.700090000000000 67306
Tue Oct 13 00:00:00 GMT 2015 JCRABudBurst Crape myrtle Lagerstroemia indica Fruit (Middle) 35.794840000000000 -78.700090000000000 67307
Sat Mar 12 00:00:00 GMT 2016 JCRABudBurst Crape myrtle Lagerstroemia indica Leaves Unfolding (None) 35.794840000000000 -78.700090000000000 67308
Sat Mar 12 00:00:00 GMT 2016 JCRABudBurst Crape myrtle Lagerstroemia indica Leaves Changing Color (None) 35.794840000000000 -78.700090000000000 67309
Sat Mar 12 00:00:00 GMT 2016 JCRABudBurst Crape myrtle Lagerstroemia indica Leaves Dropping (Late) 35.794840000000000 -78.700090000000000 67310
Sat Mar 12 00:00:00 GMT 2016 JCRABudBurst Crape myrtle Lagerstroemia indica Flowers (None) 35.794840000000000 -78.700090000000000 67311
Sat Mar 12 00:00:00 GMT 2016 JCRABudBurst Crape myrtle Lagerstroemia indica Fruit (None) 35.794840000000000 -78.700090000000000 67312
Thu Apr 28 00:00:00 GMT 2016 JCRABudBurst Crape myrtle Lagerstroemia indica Leaves Unfolding (Late) 35.794840000000000 -78.700090000000000 67345
Thu Apr 28 00:00:00 GMT 2016 JCRABudBurst Crape myrtle Lagerstroemia indica Leaves Changing Color (None) 35.794840000000000 -78.700090000000000 67346
Thu Apr 28 00:00:00 GMT 2016 JCRABudBurst Crape myrtle Lagerstroemia indica Leaves Dropping (None) 35.794840000000000 -78.700090000000000 67347
Thu Apr 28 00:00:00 GMT 2016 JCRABudBurst Crape myrtle Lagerstroemia indica Flowers (None) 35.794840000000000 -78.700090000000000 67348
Thu Apr 28 00:00:00 GMT 2016 JCRABudBurst Crape myrtle Lagerstroemia indica Fruit (None) 35.794840000000000 -78.700090000000000 67349
Thu Apr 21 00:00:00 GMT 2016 JCRABudBurst Crape myrtle Lagerstroemia indica Leaves Unfolding (Middle) 35.794840000000000 -78.700090000000000 67350
Thu Apr 21 00:00:00 GMT 2016 JCRABudBurst Crape myrtle Lagerstroemia indica Leaves Changing Color (None) 35.794840000000000 -78.700090000000000 67351
Thu Apr 21 00:00:00 GMT 2016 JCRABudBurst Crape myrtle Lagerstroemia indica Leaves Dropping (None) 35.794840000000000 -78.700090000000000 67352
Thu Apr 21 00:00:00 GMT 2016 JCRABudBurst Crape myrtle Lagerstroemia indica Flowers (None) 35.794840000000000 -78.700090000000000 67353
Thu Apr 21 00:00:00 GMT 2016 JCRABudBurst Crape myrtle Lagerstroemia indica Fruit (None) 35.794840000000000 -78.700090000000000 67354
Sun Mar 29 00:00:00 GMT 2015 JCRABudBurst Crape myrtle Lagerstroemia indica Leaves Unfolding (None) 35.794840000000000 -78.700090000000000 67371
Sun Mar 29 00:00:00 GMT 2015 JCRABudBurst Crape myrtle Lagerstroemia indica Leaves Changing Color (None) 35.794840000000000 -78.700090000000000 67372
Sun Mar 29 00:00:00 GMT 2015 JCRABudBurst Crape myrtle Lagerstroemia indica Leaves Dropping (Late) 35.794840000000000 -78.700090000000000 67373
Sun Mar 29 00:00:00 GMT 2015 JCRABudBurst Crape myrtle Lagerstroemia indica Flowers (None) 35.794840000000000 -78.700090000000000 67374
Sun Mar 29 00:00:00 GMT 2015 JCRABudBurst Crape myrtle Lagerstroemia indica Fruit (None) 35.794840000000000 -78.700090000000000 67375
Sat Feb 14 00:00:00 GMT 2015 JCRABudBurst Crape myrtle Lagerstroemia indica Leaves Unfolding (None) 35.794840000000000 -78.700090000000000 67383
Sat Feb 14 00:00:00 GMT 2015 JCRABudBurst Crape myrtle Lagerstroemia indica Leaves Changing Color (None) 35.794840000000000 -78.700090000000000 67384
Sat Feb 14 00:00:00 GMT 2015 JCRABudBurst Crape myrtle Lagerstroemia indica Leaves Dropping (Late) 35.794840000000000 -78.700090000000000 67385
Sat Feb 14 00:00:00 GMT 2015 JCRABudBurst Crape myrtle Lagerstroemia indica Flowers (None) 35.794840000000000 -78.700090000000000 67386
Sat Feb 14 00:00:00 GMT 2015 JCRABudBurst Crape myrtle Lagerstroemia indica Fruit (None) 35.794840000000000 -78.700090000000000 67387
Mon May 23 00:00:00 GMT 2016 aka Crape myrtle Lagerstroemia indica Leaves Unfolding (Late) 37.245430000000000 -77.475820000000000 67541
Mon May 23 00:00:00 GMT 2016 aka Crape myrtle Lagerstroemia indica Leaves Changing Color (Early) 37.245430000000000 -77.475820000000000 67542
Mon May 23 00:00:00 GMT 2016 aka Crape myrtle Lagerstroemia indica Leaves Dropping (None) 37.245430000000000 -77.475820000000000 67543
Mon May 23 00:00:00 GMT 2016 aka Crape myrtle Lagerstroemia indica Flowers (None) 37.245430000000000 -77.475820000000000 67544
Mon May 23 00:00:00 GMT 2016 aka Crape myrtle Lagerstroemia indica Fruit (Early) 37.245430000000000 -77.475820000000000 67545
Mon May 23 00:00:00 GMT 2016 citizenscience Crape myrtle Lagerstroemia indica Leaves Unfolding (Middle) 37.245430000000000 -77.475820000000000 67546
Mon May 23 00:00:00 GMT 2016 citizenscience Crape myrtle Lagerstroemia indica Leaves Changing Color (Early) 37.245430000000000 -77.475820000000000 67547
Mon May 23 00:00:00 GMT 2016 citizenscience Crape myrtle Lagerstroemia indica Leaves Dropping (None) 37.245430000000000 -77.475820000000000 67548
Mon May 23 00:00:00 GMT 2016 citizenscience Crape myrtle Lagerstroemia indica Flowers (None) 37.245430000000000 -77.475820000000000 67549
Mon May 23 00:00:00 GMT 2016 citizenscience Crape myrtle Lagerstroemia indica Fruit (None) 37.245430000000000 -77.475820000000000 67550
Wed May 25 00:00:00 GMT 2016 aka Crape myrtle Lagerstroemia indica Leaves Unfolding (Late) 37.245430000000000 -77.475820000000000 67724
Wed May 25 00:00:00 GMT 2016 aka Crape myrtle Lagerstroemia indica Leaves Changing Color (Early) 37.245430000000000 -77.475820000000000 67725
Wed May 25 00:00:00 GMT 2016 aka Crape myrtle Lagerstroemia indica Leaves Dropping (None) 37.245430000000000 -77.475820000000000 67726
Wed May 25 00:00:00 GMT 2016 aka Crape myrtle Lagerstroemia indica Flowers (None) 37.245430000000000 -77.475820000000000 67727
Wed May 25 00:00:00 GMT 2016 aka Crape myrtle Lagerstroemia indica Fruit (None) 37.245430000000000 -77.475820000000000 67728
Fri May 27 00:00:00 GMT 2016 aka Crape myrtle Lagerstroemia indica Leaves Unfolding (Middle) 37.245430000000000 -77.475820000000000 67989
Fri May 27 00:00:00 GMT 2016 aka Crape myrtle Lagerstroemia indica Leaves Changing Color (None) 37.245430000000000 -77.475820000000000 67990
Fri May 27 00:00:00 GMT 2016 aka Crape myrtle Lagerstroemia indica Leaves Dropping (Early) 37.245430000000000 -77.475820000000000 67991
Fri May 27 00:00:00 GMT 2016 aka Crape myrtle Lagerstroemia indica Flowers (None) 37.245430000000000 -77.475820000000000 67992
Fri May 27 00:00:00 GMT 2016 aka Crape myrtle Lagerstroemia indica Fruit (None) 37.245430000000000 -77.475820000000000 67993
Tue May 31 00:00:00 GMT 2016 aka Crape myrtle Lagerstroemia indica Leaves Unfolding (Late) 37.245430000000000 -77.475820000000000 68192
Tue May 31 00:00:00 GMT 2016 aka Crape myrtle Lagerstroemia indica Leaves Changing Color (Early) 37.245430000000000 -77.475820000000000 68193
Tue May 31 00:00:00 GMT 2016 aka Crape myrtle Lagerstroemia indica Leaves Dropping (None) 37.245430000000000 -77.475820000000000 68194
Tue May 31 00:00:00 GMT 2016 aka Crape myrtle Lagerstroemia indica Flowers (None) 37.245430000000000 -77.475820000000000 68195
Tue May 31 00:00:00 GMT 2016 aka Crape myrtle Lagerstroemia indica Fruit (None) 37.245430000000000 -77.475820000000000 68196
Fri Jun 17 00:00:00 GMT 2016 Aaronvu7 Crape myrtle Lagerstroemia indica Leaves Unfolding (Middle) 32.659913000000000 -97.003819000000000 68433
Fri Jun 17 00:00:00 GMT 2016 Aaronvu7 Crape myrtle Lagerstroemia indica Leaves Changing Color (None) 32.659913000000000 -97.003819000000000 68434
Fri Jun 17 00:00:00 GMT 2016 Aaronvu7 Crape myrtle Lagerstroemia indica Leaves Dropping (None) 32.659913000000000 -97.003819000000000 68435
Fri Jun 17 00:00:00 GMT 2016 Aaronvu7 Crape myrtle Lagerstroemia indica Flowers (Early) 32.659913000000000 -97.003819000000000 68436
Fri Jun 17 00:00:00 GMT 2016 Aaronvu7 Crape myrtle Lagerstroemia indica Fruit (None) 32.659913000000000 -97.003819000000000 68437
Tue Jun 21 00:00:00 GMT 2016 kennedywilliamson Crape myrtle Lagerstroemia indica Leaves Unfolding (Late) 30.597180000000000 -96.300590000000000 68482
Tue Jun 21 00:00:00 GMT 2016 kennedywilliamson Crape myrtle Lagerstroemia indica Leaves Unfolding (Late) 30.597180000000000 -96.300590000000000 68483
Tue Jun 21 00:00:00 GMT 2016 kennedywilliamson Crape myrtle Lagerstroemia indica Leaves Changing Color (None) 30.597180000000000 -96.300590000000000 68484
Tue Jun 21 00:00:00 GMT 2016 kennedywilliamson Crape myrtle Lagerstroemia indica Leaves Changing Color (None) 30.597180000000000 -96.300590000000000 68485
Tue Jun 21 00:00:00 GMT 2016 kennedywilliamson Crape myrtle Lagerstroemia indica Leaves Dropping (None) 30.597180000000000 -96.300590000000000 68486
Tue Jun 21 00:00:00 GMT 2016 kennedywilliamson Crape myrtle Lagerstroemia indica Leaves Dropping (None) 30.597180000000000 -96.300590000000000 68487
Tue Jun 21 00:00:00 GMT 2016 kennedywilliamson Crape myrtle Lagerstroemia indica Flowers (Middle) 30.597180000000000 -96.300590000000000 68488
Tue Jun 21 00:00:00 GMT 2016 kennedywilliamson Crape myrtle Lagerstroemia indica Flowers (Middle) 30.597180000000000 -96.300590000000000 68489
Tue Jun 21 00:00:00 GMT 2016 kennedywilliamson Crape myrtle Lagerstroemia indica Fruit (None) 30.597180000000000 -96.300590000000000 68490
Tue Jun 21 00:00:00 GMT 2016 kennedywilliamson Crape myrtle Lagerstroemia indica Fruit (None) 30.597180000000000 -96.300590000000000 68491
Wed Jun 22 00:00:00 GMT 2016 VCabrera Crape myrtle Lagerstroemia indica Leaves Unfolding (Late) 32.793940000000000 -96.960020000000000 68492
Wed Jun 22 00:00:00 GMT 2016 VCabrera Crape myrtle Lagerstroemia indica Leaves Changing Color (Late) 32.793940000000000 -96.960020000000000 68493
Wed Jun 22 00:00:00 GMT 2016 VCabrera Crape myrtle Lagerstroemia indica Leaves Dropping (None) 32.793940000000000 -96.960020000000000 68494
Wed Jun 22 00:00:00 GMT 2016 VCabrera Crape myrtle Lagerstroemia indica Flowers (Middle) 32.793940000000000 -96.960020000000000 68495
Wed Jun 22 00:00:00 GMT 2016 VCabrera Crape myrtle Lagerstroemia indica Fruit (Middle) 32.793940000000000 -96.960020000000000 68496
Thu Jun 23 00:00:00 GMT 2016 ebrito1 Crape myrtle Lagerstroemia indica Leaves Unfolding (Middle) 32.869750000000000 -96.446090000000000 68569
Thu Jun 23 00:00:00 GMT 2016 ebrito1 Crape myrtle Lagerstroemia indica Leaves Changing Color (Early) 32.869750000000000 -96.446090000000000 68570
Thu Jun 23 00:00:00 GMT 2016 ebrito1 Crape myrtle Lagerstroemia indica Leaves Dropping (None) 32.869750000000000 -96.446090000000000 68571
Thu Jun 23 00:00:00 GMT 2016 ebrito1 Crape myrtle Lagerstroemia indica Flowers (Middle) 32.869750000000000 -96.446090000000000 68572
Thu Jun 23 00:00:00 GMT 2016 ebrito1 Crape myrtle Lagerstroemia indica Fruit (None) 32.869750000000000 -96.446090000000000 68573
Fri Jun 24 00:00:00 GMT 2016 luwam Crape myrtle Lagerstroemia indica Leaves Unfolding (Middle) 32.921670000000000 -96.730330000000000 68574
Fri Jun 24 00:00:00 GMT 2016 luwam Crape myrtle Lagerstroemia indica Leaves Changing Color (Early) 32.921670000000000 -96.730330000000000 68575
Fri Jun 24 00:00:00 GMT 2016 luwam Crape myrtle Lagerstroemia indica Leaves Dropping (Middle) 32.921670000000000 -96.730330000000000 68576
Fri Jun 24 00:00:00 GMT 2016 luwam Crape myrtle Lagerstroemia indica Flowers (Late) 32.921670000000000 -96.730330000000000 68577
Fri Jun 24 00:00:00 GMT 2016 luwam Crape myrtle Lagerstroemia indica Fruit (None) 32.921670000000000 -96.730330000000000 68578
Fri Jun 24 00:00:00 GMT 2016 luwam Crape myrtle Lagerstroemia indica Leaves Unfolding (Middle) 32.921670000000000 -96.730330000000000 68579
Fri Jun 24 00:00:00 GMT 2016 luwam Crape myrtle Lagerstroemia indica Leaves Changing Color (Middle) 32.921670000000000 -96.730330000000000 68580
Fri Jun 24 00:00:00 GMT 2016 luwam Crape myrtle Lagerstroemia indica Leaves Dropping (Early) 32.921670000000000 -96.730330000000000 68581
Fri Jun 24 00:00:00 GMT 2016 luwam Crape myrtle Lagerstroemia indica Flowers (Middle) 32.921670000000000 -96.730330000000000 68582
Fri Jun 24 00:00:00 GMT 2016 luwam Crape myrtle Lagerstroemia indica Fruit (Early) 32.921670000000000 -96.730330000000000 68583
Fri Jun 24 00:00:00 GMT 2016 luwam Crape myrtle Lagerstroemia indica Leaves Unfolding (Middle) 32.921670000000000 -96.730330000000000 68584
Fri Jun 24 00:00:00 GMT 2016 luwam Crape myrtle Lagerstroemia indica Leaves Changing Color (Early) 32.921670000000000 -96.730330000000000 68585
Fri Jun 24 00:00:00 GMT 2016 luwam Crape myrtle Lagerstroemia indica Leaves Dropping (Early) 32.921670000000000 -96.730330000000000 68586
Fri Jun 24 00:00:00 GMT 2016 luwam Crape myrtle Lagerstroemia indica Flowers (Middle) 32.921670000000000 -96.730330000000000 68587
Fri Jun 24 00:00:00 GMT 2016 luwam Crape myrtle Lagerstroemia indica Fruit (Early) 32.921670000000000 -96.730330000000000 68588
Fri Jun 24 00:00:00 GMT 2016 luwam Crape myrtle Lagerstroemia indica Leaves Unfolding (Middle) 31.926830000000000 -96.429430000000000 68589
Fri Jun 24 00:00:00 GMT 2016 luwam Crape myrtle Lagerstroemia indica Leaves Changing Color (Early) 31.926830000000000 -96.429430000000000 68590
Fri Jun 24 00:00:00 GMT 2016 luwam Crape myrtle Lagerstroemia indica Leaves Dropping (Early) 31.926830000000000 -96.429430000000000 68591
Fri Jun 24 00:00:00 GMT 2016 luwam Crape myrtle Lagerstroemia indica Flowers (Middle) 31.926830000000000 -96.429430000000000 68592
Fri Jun 24 00:00:00 GMT 2016 luwam Crape myrtle Lagerstroemia indica Fruit (Early) 31.926830000000000 -96.429430000000000 68593
Fri Jun 24 00:00:00 GMT 2016 luwam Crape myrtle Lagerstroemia indica Leaves Unfolding (Late) 31.926830000000000 -96.429430000000000 68594
Fri Jun 24 00:00:00 GMT 2016 luwam Crape myrtle Lagerstroemia indica Leaves Changing Color (Middle) 31.926830000000000 -96.429430000000000 68595
Fri Jun 24 00:00:00 GMT 2016 luwam Crape myrtle Lagerstroemia indica Leaves Dropping (Early) 31.926830000000000 -96.429430000000000 68596
Fri Jun 24 00:00:00 GMT 2016 luwam Crape myrtle Lagerstroemia indica Flowers (Middle) 31.926830000000000 -96.429430000000000 68597
Fri Jun 24 00:00:00 GMT 2016 luwam Crape myrtle Lagerstroemia indica Fruit (Early) 31.926830000000000 -96.429430000000000 68598
Wed Jun 29 00:00:00 GMT 2016 richardsonfamily Crape myrtle Lagerstroemia indica First Flower 38.678520000000000 -121.773300000000000 68630
Mon Jul 25 00:00:00 GMT 2016 christinaroukis Crape myrtle Lagerstroemia indica Leaves Unfolding (Late) 38.894420000000000 -77.501660000000000 69095
Mon Jul 25 00:00:00 GMT 2016 christinaroukis Crape myrtle Lagerstroemia indica Leaves Changing Color (None) 38.894420000000000 -77.501660000000000 69096
Mon Jul 25 00:00:00 GMT 2016 christinaroukis Crape myrtle Lagerstroemia indica Leaves Dropping (None) 38.894420000000000 -77.501660000000000 69097
Mon Jul 25 00:00:00 GMT 2016 christinaroukis Crape myrtle Lagerstroemia indica Flowers (Early) 38.894420000000000 -77.501660000000000 69098
Mon Jul 25 00:00:00 GMT 2016 christinaroukis Crape myrtle Lagerstroemia indica Fruit (None) 38.894420000000000 -77.501660000000000 69099
Tue Aug 02 00:00:00 GMT 2016 elenabecker7 Crape myrtle Lagerstroemia indica Leaves Unfolding (Middle) 38.892557000000000 -77.502739000000000 69533
Tue Aug 02 00:00:00 GMT 2016 elenabecker7 Crape myrtle Lagerstroemia indica Leaves Changing Color (Middle) 38.892557000000000 -77.502739000000000 69534
Tue Aug 02 00:00:00 GMT 2016 elenabecker7 Crape myrtle Lagerstroemia indica Leaves Dropping (Early) 38.892557000000000 -77.502739000000000 69535
Tue Aug 02 00:00:00 GMT 2016 elenabecker7 Crape myrtle Lagerstroemia indica Flowers (Middle) 38.892557000000000 -77.502739000000000 69536
Tue Aug 02 00:00:00 GMT 2016 elenabecker7 Crape myrtle Lagerstroemia indica Fruit (None) 38.892557000000000 -77.502739000000000 69537
Mon Sep 05 00:00:00 GMT 2016 awoods153 Crape myrtle Lagerstroemia indica Leaves Unfolding (Late) 38.918310000000000 -77.536130000000000 69628
Mon Sep 05 00:00:00 GMT 2016 awoods153 Crape myrtle Lagerstroemia indica Leaves Changing Color (None) 38.918310000000000 -77.536130000000000 69629
Mon Sep 05 00:00:00 GMT 2016 awoods153 Crape myrtle Lagerstroemia indica Leaves Dropping (None) 38.918310000000000 -77.536130000000000 69630
Mon Sep 05 00:00:00 GMT 2016 awoods153 Crape myrtle Lagerstroemia indica Flowers (Late) 38.918310000000000 -77.536130000000000 69631
Mon Sep 05 00:00:00 GMT 2016 awoods153 Crape myrtle Lagerstroemia indica Fruit (None) 38.918310000000000 -77.536130000000000 69632
Tue Sep 20 00:00:00 GMT 2016 tmfwade Crape myrtle Lagerstroemia indica Leaves Unfolding (Middle) 33.191245000000000 -96.532928000000000 69960
Tue Sep 20 00:00:00 GMT 2016 tmfwade Crape myrtle Lagerstroemia indica Leaves Changing Color (Early) 33.191245000000000 -96.532928000000000 69961
Tue Sep 20 00:00:00 GMT 2016 tmfwade Crape myrtle Lagerstroemia indica Leaves Dropping (None) 33.191245000000000 -96.532928000000000 69962
Tue Sep 20 00:00:00 GMT 2016 tmfwade Crape myrtle Lagerstroemia indica Flowers (None) 33.191245000000000 -96.532928000000000 69963
Tue Sep 20 00:00:00 GMT 2016 tmfwade Crape myrtle Lagerstroemia indica Fruit (None) 33.191245000000000 -96.532928000000000 69964
Wed Sep 21 00:00:00 GMT 2016 ignatiousAce Crape myrtle Lagerstroemia indica Leaves Unfolding (Late) 32.829178000000000 -96.610972000000000 70031
Wed Sep 21 00:00:00 GMT 2016 ignatiousAce Crape myrtle Lagerstroemia indica Leaves Changing Color (None) 32.829178000000000 -96.610972000000000 70032
Wed Sep 21 00:00:00 GMT 2016 ignatiousAce Crape myrtle Lagerstroemia indica Leaves Dropping (None) 32.829178000000000 -96.610972000000000 70033
Wed Sep 21 00:00:00 GMT 2016 ignatiousAce Crape myrtle Lagerstroemia indica Flowers (Middle) 32.829178000000000 -96.610972000000000 70034
Wed Sep 21 00:00:00 GMT 2016 ignatiousAce Crape myrtle Lagerstroemia indica Fruit (None) 32.829178000000000 -96.610972000000000 70035
Wed Sep 21 00:00:00 GMT 2016 ignatiousAce Crape myrtle Lagerstroemia indica Leaves Unfolding (Late) 32.829190000000000 -96.610930000000000 70039
Wed Sep 21 00:00:00 GMT 2016 ignatiousAce Crape myrtle Lagerstroemia indica Leaves Changing Color (None) 32.829190000000000 -96.610930000000000 70040
Wed Sep 21 00:00:00 GMT 2016 ignatiousAce Crape myrtle Lagerstroemia indica Leaves Dropping (None) 32.829190000000000 -96.610930000000000 70041
Wed Sep 21 00:00:00 GMT 2016 ignatiousAce Crape myrtle Lagerstroemia indica Flowers (Middle) 32.829190000000000 -96.610930000000000 70042
Wed Sep 21 00:00:00 GMT 2016 ignatiousAce Crape myrtle Lagerstroemia indica Fruit (None) 32.829190000000000 -96.610930000000000 70043
Wed Sep 21 00:00:00 GMT 2016 ce89cerun Crape myrtle Lagerstroemia indica Leaves Unfolding (Late) 32.972290000000000 -96.854450000000000 70050
Wed Sep 21 00:00:00 GMT 2016 ce89cerun Crape myrtle Lagerstroemia indica Leaves Changing Color (None) 32.972290000000000 -96.854450000000000 70051
Wed Sep 21 00:00:00 GMT 2016 ce89cerun Crape myrtle Lagerstroemia indica Leaves Dropping (Middle) 32.972290000000000 -96.854450000000000 70052
Wed Sep 21 00:00:00 GMT 2016 ce89cerun Crape myrtle Lagerstroemia indica Flowers (Late) 32.972290000000000 -96.854450000000000 70053
Wed Sep 21 00:00:00 GMT 2016 ce89cerun Crape myrtle Lagerstroemia indica Fruit (Late) 32.972290000000000 -96.854450000000000 70054
Tue Oct 25 00:00:00 GMT 2016 Lee700 Crape myrtle Lagerstroemia indica Leaves Unfolding (Late) 35.328650000000000 -82.410600000000000 71136
Tue Oct 25 00:00:00 GMT 2016 Lee700 Crape myrtle Lagerstroemia indica Leaves Changing Color (Early) 35.328650000000000 -82.410600000000000 71137
Tue Oct 25 00:00:00 GMT 2016 Lee700 Crape myrtle Lagerstroemia indica Leaves Dropping (None) 35.328650000000000 -82.410600000000000 71138
Tue Oct 25 00:00:00 GMT 2016 Lee700 Crape myrtle Lagerstroemia indica Flowers (Late) 35.328650000000000 -82.410600000000000 71139
Tue Oct 25 00:00:00 GMT 2016 Lee700 Crape myrtle Lagerstroemia indica Fruit (Middle) 35.328650000000000 -82.410600000000000 71140
Wed Nov 30 00:00:00 GMT 2016 ilaydawilson Crape myrtle Lagerstroemia indica Leaves Unfolding (Late) 35.201650000000000 -81.141220000000000 74136
Wed Nov 30 00:00:00 GMT 2016 ilaydawilson Crape myrtle Lagerstroemia indica Leaves Changing Color (Late) 35.201650000000000 -81.141220000000000 74137
Wed Nov 30 00:00:00 GMT 2016 ilaydawilson Crape myrtle Lagerstroemia indica Leaves Dropping (Middle) 35.201650000000000 -81.141220000000000 74138
Wed Nov 30 00:00:00 GMT 2016 ilaydawilson Crape myrtle Lagerstroemia indica Flowers (None) 35.201650000000000 -81.141220000000000 74139
Wed Nov 30 00:00:00 GMT 2016 ilaydawilson Crape myrtle Lagerstroemia indica Fruit (None) 35.201650000000000 -81.141220000000000 74140
Thu Mar 09 00:00:00 GMT 2017 jeanmells Crape myrtle Lagerstroemia indica Bud Burst 35.797400000000000 -78.634050000000000 75394
Wed Mar 15 00:00:00 GMT 2017 Qrrwgie2 Crape myrtle Lagerstroemia indica Bud Burst 37.800860000000000 -122.210420000000000 75493
Mon Mar 20 00:00:00 GMT 2017 Qrrwgie2 Crape myrtle Lagerstroemia indica First Leaf 37.800860000000000 -122.210420000000000 76037
Sat Apr 01 00:00:00 GMT 2017 Qrrwgie2 Crape myrtle Lagerstroemia indica All Leaves Unfolded 37.800860000000000 -122.210420000000000 76960
Sat Apr 22 00:00:00 GMT 2017 BradBSWOSU Crape myrtle Lagerstroemia indica Leaves Unfolding (Middle) 35.532855000000000 -98.706611000000000 80479
Sat Apr 22 00:00:00 GMT 2017 BradBSWOSU Crape myrtle Lagerstroemia indica Leaves Changing Color (Early) 35.532855000000000 -98.706611000000000 80480
Sat Apr 22 00:00:00 GMT 2017 BradBSWOSU Crape myrtle Lagerstroemia indica Leaves Dropping (Early) 35.532855000000000 -98.706611000000000 80481
Sat Apr 22 00:00:00 GMT 2017 BradBSWOSU Crape myrtle Lagerstroemia indica Flowers (None) 35.532855000000000 -98.706611000000000 80482
Sat Apr 22 00:00:00 GMT 2017 BradBSWOSU Crape myrtle Lagerstroemia indica Fruit (None) 35.532855000000000 -98.706611000000000 80483
Mon Mar 06 00:00:00 GMT 2017 arneciaholmes4 Crape myrtle Lagerstroemia indica Bud Burst 34.959670000000000 -89.543750000000000 81090
Mon Apr 03 00:00:00 GMT 2017 arneciaholmes4 Crape myrtle Lagerstroemia indica First Leaf 34.959670000000000 -89.543750000000000 81091
Mon May 01 00:00:00 GMT 2017 arneciaholmes4 Crape myrtle Lagerstroemia indica All Leaves Unfolded 34.959670000000000 -89.543750000000000 81092
Sat May 06 00:00:00 GMT 2017 kellysav2 Crape myrtle Lagerstroemia indica Leaves Unfolding (Early) 40.694273000000000 -74.327230000000000 81779
Sat May 06 00:00:00 GMT 2017 kellysav2 Crape myrtle Lagerstroemia indica Leaves Changing Color (None) 40.694273000000000 -74.327230000000000 81780
Sat May 06 00:00:00 GMT 2017 kellysav2 Crape myrtle Lagerstroemia indica Leaves Dropping (None) 40.694273000000000 -74.327230000000000 81781
Sat May 06 00:00:00 GMT 2017 kellysav2 Crape myrtle Lagerstroemia indica Flowers (None) 40.694273000000000 -74.327230000000000 81782
Sat May 06 00:00:00 GMT 2017 kellysav2 Crape myrtle Lagerstroemia indica Fruit (None) 40.694273000000000 -74.327230000000000 81783

*All downloadable materials require the free Adobe Reader.